AJ5TT Weather Reports


Display with metric or nautical units.
time (UTC)temp
F
wind
direction
speed
MPH
gust
MPH
rain 1hr
in
rain 24hr
in
rain mn
in
humidity
%
barometer
mb
20260508233055 76 39 2.0 7.0 0.00 0.00 0.00 87 1010.4
20260508231556 76 37 1.0 4.0 0.00 0.00 0.00 86 1009.8
20260508230056 76 73 1.0 4.0 0.00 0.00 0.00 85 1010.2
20260508224615 77 267 1.0 6.0 0.00 0.00 0.00 84 1010.1
20260508223057 76 360 1.0 4.0 0.00 0.00 0.00 86 1009.9
20260508221611 75 48 2.0 4.0 0.00 0.00 0.00 86 1010.3
20260508220100 75 61 3.0 6.0 0.00 0.00 0.00 86 1010.3
20260508214600 75 9 0.0 2.0 0.00 0.00 0.00 86 1010.5
20260508213058 74 332 0.0 2.0 0.00 0.00 0.00 86 1010.6
20260508211600 75 312 1.0 2.0 0.00 0.00 0.00 85 1010.6
20260508210110 75 63 2.0 6.0 0.00 0.00 0.00 84 1010.7
20260508204610 76 0 0.0 5.0 0.00 0.00 0.00 85 1010.8
20260508203108 76 5 1.0 5.0 0.00 0.00 0.00 84 1010.9
20260508201609 75 49 2.0 5.0 0.00 0.00 0.00 84 1011.3
20260508200111 75 323 0.0 4.0 0.00 0.00 0.00 83 1011.3
20260508194602 77 145 1.0 6.0 0.00 0.00 0.00 83 1011.4
20260508193101 75 79 3.0 6.0 0.00 0.00 0.00 84 1011.5
20260508191553 74 75 2.0 8.0 0.00 0.00 0.00 86 1011.5
20260508190050 71 63 3.0 10.0 0.00 0.00 0.00 91 1011.5
20260508184553 69 30 4.0 11.0 0.00 0.00 0.00 92 1011.8
20260508183130 69 63 3.0 9.0 0.00 0.00 0.00 92 1011.9
20260508181609 69 9 4.0 10.0 0.00 0.00 0.00 91 1012.4
20260508180052 69 40 4.0 8.0 0.00 0.00 0.00 91 1012.3
20260508174555 69 9 3.0 6.0 0.00 0.00 0.00 91 1012.5
20260508173102 69 19 1.0 6.0 0.00 0.00 0.00 91 1012.6
20260508171558 68 74 3.0 10.0 0.00 0.00 0.00 92 1012.2
20260508170052 68 40 4.0 9.0 0.00 0.00 0.00 92 1012.8
20260508164552 68 57 3.0 8.0 0.00 0.00 0.00 92 1013.4
20260508163054 68 74 3.0 7.0 0.00 0.00 0.00 92 1013.5
20260508161608 68 25 2.0 7.0 0.00 0.00 0.00 92 1013.8
20260508154557 68 23 4.0 10.0 0.00 0.00 0.00 92 1013.9
20260508153058 68 32 3.0 10.0 0.00 0.00 0.00 93 1014.0
20260508151555 67 51 3.0 9.0 0.00 0.00 0.00 93 1013.7
20260508150122 67 24 4.0 10.0 0.00 0.00 0.00 93 1013.6
20260508144602 67 36 3.0 7.0 0.00 0.00 0.00 93 1013.6
20260508143054 67 352 3.0 4.0 0.00 0.00 0.00 93 1013.9
20260508141603 67 17 1.0 3.0 0.00 0.00 0.00 93 1014.1
20260508140059 67 24 2.0 5.0 0.00 0.00 0.00 92 1013.8
20260508134551 68 17 3.0 5.0 0.00 0.00 0.00 92 1013.6
20260508133052 68 47 0.0 3.0 0.00 0.00 0.00 92 1013.7
20260508131558 67 58 3.0 6.0 0.00 0.00 0.00 92 1013.9
20260508130056 68 36 2.0 10.0 0.00 0.00 0.00 92 1013.7
20260508124600 68 35 3.0 7.0 0.00 0.00 0.00 92 1013.7
20260508123056 68 44 4.0 8.0 0.00 0.00 0.00 91 1013.8
20260508121559 68 19 3.0 5.0 0.00 0.00 0.00 91 1013.7
20260508120103 68 36 3.0 7.0 0.00 0.00 0.00 91 1013.1
20260508114604 69 57 2.0 5.0 0.00 0.00 0.00 91 1013.0
20260508113125 69 42 2.0 4.0 0.00 0.00 0.00 91 1013.4
20260508111553 69 28 2.0 4.0 0.00 0.00 0.00 91 1013.5
20260508110057 69 30 2.0 8.0 0.00 0.00 0.00 91 1013.6
20260508104559 70 37 3.0 7.0 0.00 0.00 0.00 91 1012.8
20260508103104 70 43 3.0 8.0 0.00 0.00 0.00 91 1013.0
20260508101557 71 39 5.0 10.0 0.00 0.00 0.00 91 1013.2
20260508100100 72 52 1.0 4.0 0.00 0.00 0.00 91 1012.9
20260508094553 72 24 1.0 3.0 0.00 0.00 0.00 91 1013.3
20260508093055 72 45 1.0 4.0 0.00 0.00 0.00 91 1013.3
20260508091554 72 66 1.0 3.0 0.00 0.00 0.00 90 1013.3
20260508090054 72 61 0.0 2.0 0.00 0.00 0.00 90 1013.3
20260508084557 72 291 0.0 3.0 0.00 0.00 0.00 88 1013.1
20260508083053 73 0 0.0 2.0 0.00 0.00 0.00 87 1013.4
20260508081601 73 256 1.0 2.0 0.00 0.00 0.00 86 1013.3
20260508080053 73 290 1.0 3.0 0.00 0.00 0.00 84 1013.4
20260508074556 74 47 0.0 2.0 0.00 0.00 0.00 83 1013.1
20260508073103 74 0 0.0 2.0 0.00 0.00 0.00 84 1013.5
20260508071553 74 0 1.0 4.0 0.00 0.00 0.00 84 1013.8
20260508070101 74 123 1.0 8.0 0.00 0.00 0.00 83 1013.6
20260508064606 74 52 2.0 6.0 0.00 0.00 0.00 83 1013.5
20260508063055 74 41 2.0 4.0 0.00 0.00 0.00 83 1013.2
20260508061600 74 20 0.0 2.0 0.00 0.00 0.00 83 1013.9
20260508060100 74 0 0.0 2.0 0.00 0.00 0.00 82 1014.1
20260508054623 74 53 0.0 3.0 0.00 0.00 0.00 81 1013.8
20260508053056 74 76 3.0 7.0 0.00 0.00 0.00 81 1013.3
20260508051557 74 20 0.0 3.0 0.00 0.00 0.00 81 1013.4
20260508050058 74 46 1.0 5.0 0.00 0.00 0.00 80 1013.4
20260508044555 74 360 1.0 3.0 0.00 0.00 0.00 80 1013.2
20260508043057 74 36 1.0 3.0 0.00 0.00 0.00 79 1013.7
20260508041554 74 65 1.0 3.0 0.00 0.00 0.00 78 1014.1
20260508040106 75 331 0.0 5.0 0.00 0.00 0.00 78 1014.9
20260508034556 75 63 2.0 6.0 0.00 0.00 0.00 77 1014.9
20260508033057 75 65 2.0 5.0 0.00 0.00 0.00 77 1014.7
20260508031603 75 82 3.0 8.0 0.00 0.00 0.00 75 1014.5
20260508030104 75 63 2.0 7.0 0.00 0.00 0.00 75 1014.3
20260508024553 75 53 2.0 6.0 0.00 0.00 0.00 75 1014.4
20260508023054 75 51 2.0 6.0 0.00 0.00 0.00 74 1014.2
20260508021601 75 31 2.0 8.0 0.00 0.00 0.00 74 1014.6
20260508020059 75 55 2.0 9.0 0.00 0.00 0.00 75 1014.1
20260508014554 75 57 3.0 6.0 0.00 0.00 0.00 77 1014.5
20260508013057 75 67 2.0 5.0 0.00 0.00 0.00 77 1014.3
20260508011606 75 28 1.0 4.0 0.00 0.00 0.00 77 1014.1
20260508010105 76 51 3.0 5.0 0.00 0.00 0.00 75 1014.0
20260508004553 76 47 2.0 8.0 0.00 0.00 0.00 74 1013.9
20260508003111 76 63 3.0 10.0 0.00 0.00 0.00 75 1013.7
20260508001553 77 46 3.0 6.0 0.00 0.00 0.00 75 1013.9
20260508000116 77 39 3.0 9.0 0.00 0.00 0.00 74 1013.8
20260507234555 78 53 3.0 7.0 0.00 0.00 0.00 72 1013.8